EW6193 Weather Reports


time (UTC)temp
F
wind
direction
speed
knots
gust
knots
rain 1hr
in
rain 24hr
in
rain mn
in
humidity
%
barometer
mb
20260509161523 54 271 1.7 4.3 0.00 0.01 0.00 67 994.3
20260509160023 54 269 2.6 6.1 0.00 0.02 0.00 68 994.2
20260509154520 54 250 3.5 6.1 0.00 0.02 0.00 68 994.3
20260509153017 54 228 3.5 7.8 0.00 0.02 0.00 67 994.0
20260509151516 54 271 4.3 7.8 0.00 0.02 0.00 67 994.1
20260509150019 53 247 3.5 5.2 0.00 0.02 0.00 68 994.4
20260509144518 53 241 2.6 4.3 0.00 0.02 0.00 68 994.6
20260509143009 54 262 1.7 5.2 0.00 0.02 0.00 66 994.9
20260509141510 54 267 3.5 9.6 0.00 0.02 0.00 66 994.9
20260509140008 54 264 3.5 6.1 0.00 0.02 0.00 66 994.9
20260509134510 55 269 3.5 7.8 0.00 0.02 0.00 65 995.0
20260509133004 55 271 3.5 7.8 0.00 0.02 0.00 64 995.0
20260509131502 56 244 4.3 10.4 0.00 0.02 0.00 63 994.8
20260509130059 56 259 4.3 13.9 0.00 0.02 0.00 63 994.7
20260509124558 55 257 4.3 10.4 0.00 0.02 0.00 64 994.8
20260509123055 56 226 6.1 11.3 0.00 0.02 0.00 62 994.6
20260509121553 55 278 5.2 10.4 0.00 0.02 0.00 65 994.6
20260509120049 55 229 5.2 9.6 0.00 0.03 0.02 66 994.4
20260509114548 55 241 3.5 6.1 0.00 0.03 0.02 65 994.6
20260509113051 54 245 2.6 7.0 0.00 0.03 0.02 66 994.8
20260509111546 53 260 6.1 10.4 0.00 0.03 0.02 68 994.6
20260509110044 53 264 1.7 3.5 0.00 0.04 0.02 70 995.2
20260509104544 53 268 0.9 4.3 0.00 0.04 0.02 69 995.1
20260509103042 54 238 1.7 6.1 0.00 0.04 0.02 68 995.1
20260509101550 54 260 0.9 4.3 0.00 0.04 0.02 68 995.1
20260509100041 55 269 1.7 5.2 0.00 0.04 0.02 66 995.1
20260509094540 55 244 1.7 7.8 0.00 0.04 0.02 64 995.0
20260509093036 55 229 4.3 9.6 0.00 0.04 0.02 64 994.9
20260509091533 55 251 4.3 8.7 0.00 0.04 0.02 65 995.1
20260509090031 53 249 3.5 6.1 0.00 0.04 0.02 69 995.3
20260509084530 53 241 0.9 6.1 0.00 0.04 0.02 70 995.3
20260509083028 53 248 0.0 2.6 0.00 0.04 0.02 70 995.2
20260509081531 53 257 0.0 1.7 0.00 0.04 0.02 70 995.1
20260509080024 54 246 0.9 2.6 0.00 0.25 0.02 69 995.1
20260509074523 55 245 0.0 3.5 0.00 0.25 0.02 69 995.1
20260509073019 55 248 1.7 6.1 0.00 0.25 0.02 69 995.1
20260509071518 56 249 2.6 5.2 0.00 0.25 0.02 69 995.0
20260509070016 56 260 1.7 6.1 0.00 0.55 0.02 69 995.1
20260509064515 56 259 0.9 5.2 0.00 0.55 0.02 70 995.0
20260509063013 57 255 1.7 6.1 0.00 0.55 0.02 69 994.8
20260509061511 57 252 2.6 9.6 0.00 0.55 0.02 69 994.8
20260509060010 58 252 4.3 12.2 0.00 0.75 0.02 69 994.5
20260509054508 58 246 3.5 10.4 0.00 0.75 0.02 69 994.5
20260509053006 58 235 3.5 9.6 0.00 0.75 0.02 69 994.4
20260509051504 59 264 4.3 7.0 0.00 0.75 0.02 67 994.3
20260509050004 60 272 2.6 5.2 0.00 1.00 0.02 65 994.5
20260509044504 62 218 2.6 6.1 0.00 1.00 0.02 63 994.4
20260509043106 63 262 3.5 8.7 0.00 1.00 0.02 61 994.4
20260509041600 63 222 3.5 7.8 0.00 1.00 0.02 61 994.5
20260509040059 64 244 3.5 7.8 0.00 1.05 0.02 59 994.6
20260509034558 65 275 1.7 7.8 0.00 1.05 0.02 60 994.5
20260509033059 64 259 1.7 6.1 0.00 1.05 0.02 61 994.5
20260509031554 65 262 5.2 12.2 0.00 1.05 0.02 60 994.4
20260509030053 64 250 4.3 7.8 0.00 1.06 0.02 63 994.2
20260509024552 64 245 2.6 6.1 0.00 1.06 0.02 64 994.3
20260509023051 64 256 1.7 5.2 0.00 1.06 0.02 65 994.2
20260509021650 64 261 2.6 6.1 0.00 1.06 0.02 65 994.1
20260509020049 64 255 2.6 7.0 0.00 1.06 0.02 63 994.0
20260509014549 65 257 2.6 6.1 0.00 1.06 0.02 62 993.9
20260509013054 65 250 2.6 6.1 0.00 1.06 0.02 62 994.0
20260509011546 65 257 0.9 4.3 0.00 1.06 0.02 67 994.1
20260509010044 65 275 2.6 7.0 0.00 1.08 0.02 68 994.2
20260509004556 65 264 0.9 2.6 0.00 1.08 0.02 71 994.2
20260509003044 64 277 2.6 5.2 0.00 1.08 0.02 69 994.2
20260509001549 65 250 1.7 5.2 0.00 1.08 0.02 68 994.3
20260509000043 65 259 3.5 5.2 0.00 1.09 0.02 69 994.5
20260508234541 63 229 2.6 6.1 0.00 1.09 0.02 75 994.7
20260508233036 63 269 1.7 6.1 0.00 1.09 0.02 76 994.8
20260508231535 63 273 1.7 5.2 0.00 1.09 0.02 75 995.0
20260508230037 63 265 2.6 5.2 0.00 1.12 0.02 75 995.2
20260508224546 63 252 2.6 7.8 0.00 1.12 0.02 76 995.2
20260508223043 62 267 0.9 4.3 0.00 1.12 0.02 78 994.8
20260508221531 62 289 2.6 7.0 0.00 1.12 0.02 78 994.7
20260508220031 62 308 1.7 7.8 0.00 1.12 0.02 78 994.7
20260508214549 62 289 2.6 8.7 0.00 1.12 0.02 77 994.7
20260508213027 63 275 2.6 7.8 0.00 1.12 0.02 75 994.8
20260508211525 63 335 1.7 9.6 0.00 1.12 0.02 75 994.7
20260508210024 62 269 2.6 6.1 0.00 1.20 0.02 76 994.6
20260508204523 62 269 2.6 7.0 0.00 1.20 0.02 75 994.4
20260508203020 60 272 3.5 8.7 0.00 1.20 0.02 78 994.1
20260508201520 60 278 3.5 10.4 0.00 1.20 0.02 79 993.9
20260508200022 60 276 4.3 9.6 0.00 1.24 0.02 77 993.8
20260508194519 61 256 1.7 8.7 0.00 1.24 0.02 73 993.3
20260508193017 61 246 5.2 12.2 0.00 1.24 0.02 72 993.2
20260508191517 60 276 3.5 8.7 0.00 1.24 0.02 75 992.9
20260508190036 60 259 1.7 7.0 0.00 1.24 0.02 76 992.4
20260508184527 60 255 1.7 9.6 0.00 1.24 0.02 74 992.4
20260508183026 59 277 4.3 7.8 0.00 1.24 0.02 77 992.7
20260508181512 59 252 0.0 0.9 0.00 1.24 0.02 79 993.4
20260508180012 59 252 0.0 0.0 0.00 1.26 0.02 78 993.7
20260508174511 60 252 0.0 7.8 0.00 1.26 0.02 76 993.6
20260508173013 60 285 3.5 13.9 0.00 1.26 0.02 74 993.2
20260508171510 60 252 9.6 15.6 0.00 1.26 0.02 75 993.2
20260508170010 60 334 5.2 11.3 0.01 1.28 0.02 77 992.9
20260508164519 59 302 4.3 10.4 0.01 1.28 0.02 79 993.2
20260508163013 60 250 5.2 12.2 0.01 1.28 0.02 77 993.1